Regional Weather Roundup
Issued by NWS

Home | Current Version | Previous Version | Text Only | Print | Product List | Glossary On
Versions: 1 2 3 4 5 6 7 8 9 10 11 12 13 14 15 16 17 18 19 20 21 22 23 24 25 26 27 28 29 30 31 32 33 34 35 36 37 38 39 40 41 42 43 44 45 46 47 48 49 50
842
ASUS43 KMPX 250710
RWRMN
WEATHER ROUNDUP FOR MINNESOTA
NATIONAL WEATHER SERVICE TWIN CITIES/CHANHASSEN MN
200 AM CDT WED MAY 25 2016


NOTE: "FAIR" INDICATES FEW OR NO CLOUDS BELOW 12,000 FEET WITH NO
SIGNIFICANT WEATHER AND/OR OBSTRUCTIONS TO VISIBILITY. N/A MEANS
CURRENT SKY AND/OR WEATHER CONDITIONS ARE NOT AVAILABLE.

MNZ060>063-068>070-250800-
   Twin Cities Metro

CITY           SKY/WX    TMP DP  RH WIND       PRES   REMARKS
TWIN CITIES    CLOUDY    68  58  70 E7        29.92R
ST PAUL        CLOUDY    64  59  83 CALM      29.93R
CRYSTAL        CLOUDY    63  55  75 CALM      29.92R
BLAINE         CLOUDY    64  57  77 E3        29.93R
EDEN PRAIRIE   CLOUDY    68  56  65 E5        29.91R
SOUTH ST PAUL  CLOUDY    66  56  70 CALM      29.93R
LAKE ELMO      FAIR      61  55  82 CALM      29.95R
$$
MNZ001>005-007-008-013>017-022>024-027-028-250800-
   Northwest Minnesota

CITY           SKY/WX    TMP DP  RH WIND       PRES   REMARKS
BEMIDJI        CLEAR     51  48  90 E5        29.94F
HALLOCK        HAZE      61  52  72 E7        29.89F VSB 3/4
ROSEAU         CLEAR     57  52  82 SE7       29.94F
WARROAD        CLEAR     55  52  88 CALM      29.96S
THIEF RVR FALL PTCLDY    61  48  63 E12       29.93F
CROOKSTON      MOCLDY    63  52  67 SE8       29.90F
FOSSTON        PTCLDY    55  46  71 E3        29.92F
DETROIT LAKES  PTCLDY    63  52  67 SE8       29.91F
MOORHEAD       CLOUDY    64  54  68 E8        29.87S
PARK RAPIDS    PTCLDY    60  52  74 E5        29.92F
MAHNOMEN       FAIR      62  52  68 SE7       29.90F
$$
MNZ006-009>011-018-025>026-250800-
   North Central Minnesota

CITY           SKY/WX    TMP DP  RH WIND       PRES   REMARKS
BAUDETTE       CLEAR     52  50  93 SE5       29.96S
FLAG ISLAND    CLEAR     59  54  82 SE6       29.95S
INTL FALLS     CLEAR     50  49  96 SE5       29.97S
WASKISH        CLEAR     54  52  94 E5        29.96F
BIG FORK       CLEAR     55  52  88 E3        29.98S
LONGVILLE      PTCLDY    54  54 100 CALM      29.96R
CRANE LAKE     CLEAR     52  50  93 S3        30.00S
ORR            CLEAR     54  48  82 SE3       29.97S
COOK           MOCLDY    55  54  94 SE5       30.00S
WALKER         PTSUNNY   53  51  94 CALM      29.95S
$$
MNZ012-019>021-037-250800-
   Northeast Minnesota

CITY           SKY/WX    TMP DP  RH WIND       PRES   REMARKS
DULUTH         FOG       51  50  96 E10       30.02S VSB 3/4
ELY            CLEAR     52  48  87 CALM      30.00F
HIBBING        CLOUDY    54  53  97 SE7       30.01R
EVELETH        CLOUDY    54  52  94 SE7       30.02R
DULUTH HARBOR  FOG       46  45  93 NE15      30.04S VSB 1
TWO HARBORS    HAZE      54  48  82 NE7       30.01S VSB 3/4
SILVER BAY     FOG       52  50  93 E6        30.02S VSB 1/2
GRAND MARAIS     N/A     46  45  96 E3        30.05S
G MARAIS ARPRT FOG       48  46  93 SE5       30.05S VSB<1/4
$$
MNZ029>031-032-039>041-046>048-054>057-064-250800-
   West Central Minnesota

CITY           SKY/WX    TMP DP  RH WIND       PRES   REMARKS
FERGUS FALLS   CLEAR     64  52  63 E10       29.84S
WHEATON        CLOUDY    64  55  72 E10       29.87R
MORRIS         CLOUDY    64  54  68 E14       29.86R
ALEXANDRIA     CLOUDY    62  51  67 E12       29.91F
ELBOW LAKE     FAIR      63  54  71 SE15G21   29.87F
WADENA         CLEAR     55  52  88 E3        29.91F
GLENWOOD       PTCLDY    61  54  77 E12       29.90F
APPLETON       CLOUDY    64  54  68 E8        29.85S
ORTONVILLE     CLOUDY    64  54  68 E9        29.85R
MADISON        CLOUDY    64  48  55 SE7       29.85S
WILLMAR        FAIR      66  57  72 SE8       29.90S
$$
MNZ033>034-036-042>043-049>051-058-059-250800-
   Central Minnesota

CITY           SKY/WX    TMP DP  RH WIND       PRES   REMARKS
ST CLOUD       PTCLDY    63  53  70 E6        29.92R
SAUK CENTRE    FAIR      59  53  79 E9        29.91F
PAYNESVILLE    PTCLDY    65  56  73 E8        29.92R
AITKIN         CLOUDY    57  54  88 E8        29.96R FOG
PINE RIVER     CLEAR     52  52 100 CALM      29.99R
BRAINERD       CLOUDY    56  54  93 VRB3      29.95R
STAPLES        CLEAR     57  52  82 CALM      29.92F
LONG PRAIRIE   FAIR      59  52  77 E8        29.92F
LITTLE FALLS   CLOUDY    61  50  67 E3        29.93S
LITCHFIELD     CLOUDY    64  59  82 E3        29.91S
BUFFALO        CLOUDY    65  55  72 NE3       29.94R
MAPLE LAKE     MOCLDY    62  59  91 NE3       29.94R
HUTCHINSON     PTCLDY    64  59  82 CALM      29.91S
$$
MNZ037-044-045-052-053-250800-
   East Central Minnesota

CITY           SKY/WX    TMP DP  RH WIND       PRES   REMARKS
PRINCETON      CLOUDY    63  55  77 NE3       29.94R
MORA           CLOUDY    55  52  88 NE6       29.98R
CAMBRIDGE      CLOUDY    64  54  68 NE6       29.93R
RUSH CITY      CLOUDY    58  55  91 CALM      29.98R
MOOSE LAKE     FOG       50  48  93 NE6       29.99R VSB 1
HINCKLEY       CLOUDY    55  55 100 NE5       29.97S
CLOQUET        FOG       52  48  87 E5        30.02R VSB 1/2
MCGREGOR       CLOUDY    55  54  94 E10       30.00R
$$
MNZ071>073-080-081-089-090-097-098-250800-
   Southwest Minnesota

CITY           SKY/WX    TMP DP  RH WIND       PRES   REMARKS
MONTEVIDEO     CLOUDY    64  54  68 S9        29.88S
GRANITE FALLS  CLOUDY    68  56  66 SE8       29.88S
CANBY          CLOUDY    68  57  69 E5        29.86S
MARSHALL       CLOUDY    69  61  75 SE8       29.86F
REDWOOD FALLS  CLOUDY    67  56  67 SE7       29.87S
OLIVIA         CLOUDY    61  50  67 SE7       29.88F
PIPESTONE      CLOUDY    64  61  88 SE5       29.86F
WINDOM         CLOUDY    66  61  82 CALM      29.89F
WORTHINGTON    CLOUDY    68  62  81 S12       29.88F
JACKSON        CLOUDY    68  59  73 SE8       29.90F
TRACY          CLOUDY    68  61  77 S7        29.87F
SLAYTON        CLOUDY    64  61  89 SE7       29.89F
$$
MNZ065>067-074>077-082>085-091>093-250800-
   South Central Minnesota

CITY           SKY/WX    TMP DP  RH WIND       PRES   REMARKS
MANKATO        CLOUDY    66  55  68 SE9       29.92R
NEW ULM        CLOUDY    66  57  72 SE8       29.89S
ST JAMES       CLOUDY    61  55  82 E6        29.91S
FAIRMONT       CLOUDY    64  52  63 E6        29.90F
GLENCOE        CLOUDY    63  61  94 E5        29.91R
FARIBAULT      CLOUDY    61  55  82 NE2       29.93R
OWATONNA       CLOUDY    66  57  72 SE9       29.93S
WASECA         CLOUDY    63  55  77 E8        29.94R
ALBERT LEA     CLOUDY    63  57  82 CALM      29.94R
$$
MNZ078>079-086>088-094>096-250800-
   Southeast Minnesota

CITY           SKY/WX    TMP DP  RH WIND       PRES   REMARKS
ROCHESTER      CLEAR     64  59  83 SE8       29.95R
RED WING       CLEAR     61  57  88 E3        29.93R
STANTON        CLEAR     63  55  77 CALM      29.92R
DODGE CENTER   CLEAR     63  55  77 SE9       29.95R
WINONA         CLEAR     61  59  94 CALM      29.95R
AUSTIN         CLEAR     64  57  77 SE6       29.95R
PRESTON        CLEAR     64  57  80 S6        29.97R
$$
ABBREVIATIONS USED IN REMARKS
   TC - TEMPERATURES IN CELSIUS
  WCI - WIND CHILL INDEX
   HX - HEAT INDEX
  VSB - VISIBILITY
$$




USA.gov is the U.S. government's official web portal to all federal, state and local government web resources and services.